Location: St. Louis
(38.6270°N, 90.1994°W)
Time: 17:00:33
(UTC-06:00)

Courier 1B - Pass Details

Date: 02 December 2021
Orbit: 962 x 1209 km, 28.3° (Epoch: 26 January)

Event Time Altitude Azimuth Distance (km) Brightness Sun altitude
Rises 20:17:43 0° 260° (W) 3,878 11.4 -41.9°
Reaches altitude 10° 20:20:51 10° 250° (WSW) 2,879 10.5 -42.6°
Enters shadow 20:23:34 21° 233° (SW) 2,147 9.6 -43.1°
